Search your local weather  

 
Advertise Here

Hazardous Weather Conditions

No active alerts for PHOENIX, ARIZONA

Current Conditions: PHOENIX, ARIZONA

Fair


66.0 F

Last Updated on Mar 6 2021, 9:53 pm MST
Humidity: 22%
Wind Speed: NE 4.6 mph
Barometer 29.90 in
Dewpoint: 26.1 F
Visibility: 10.00 mi
Precip: --
Heat Index: NA
Wind Chill: NA
Current conditions at:

Phoenix, Phoenix-Deer Valley Municipal Airport, AZ (KDVT)

Lat: 33.69026 Lon: -112.06618

Local Radar Image active severe weather and emergency alerts image image weather storm and storm spotter reports image weather observation monitoring service image
Local
Radar
Active
Alerts
Storm Reports Weather
Monitoring

5 Day Forecast for PHOENIX, ARIZONA (85001)

Saturday

Mostly Sunny

High 85 °F
Saturday
Night
Mostly Clear

Low 55 °F
Sunday

Mostly Cloudy

High 87 °F
Sunday
Night
Mostly Cloudy

Low 58 °F
Monday

Mostly Cloudy

High 83 °F
Monday
Night
Mostly Cloudy

Low 56 °F
Tuesday

Mostly Cloudy

High 75 °F
Tuesday
Night
Partly Cloudy

Low 49 °F
Wednesday

Slight Chance of Showers
High 70 °F

Sign-up For Email & Text Message Weather Alert Notification Services


Advertise Here

Observation History for PHOENIX, ARIZONA


Time Wind
(mph)
Vis
(mi)
Weather Precip (in) Temperature (F) Relative
Humidity
Wind
Chill
(F)
Heat
Index
(F)
Pressure
Air Dwpt altimeter
(in)
sea level
(mb)
9:53 pm MST NE 4.6 10.00 Fair -- 66.0 26.1 22% NA NA 29.90 1010.9
8:53 pm MST NE 3.5 10.00 Fair -- 68.0 24.1 19% NA NA 29.89 1010.5
7:53 pm MST NE 4.6 10.00 Fair -- 70.0 24.1 18% NA NA 29.88 1010.3
6:53 pm MST SE 3.5 10.00 Fair -- 75.0 23.0 14% NA NA 29.87 1009.8
5:53 pm MST SE 5.8 10.00 Fair -- 80.0 21.9 11% NA 78 29.87 1009.4
4:53 pm MST S 6.9 10.00 Fair -- 80.0 23.0 12% NA 78 29.86 1009.3
3:53 pm MST N 0.0 10.00 Fair -- 81.0 25.0 13% NA 79 29.88 1009.9
2:53 pm MST 4.6 10.00 Fair -- 81.0 28.0 14% NA 79 29.90 1010.5
1:53 pm MST 5.8 10.00 Fair -- 79.0 28.9 16% NA NA 29.91 1011.0
12:53 pm MST SE 12.7 G 19.6 10.00 Fair -- 78.0 28.9 16% NA NA 29.93 1011.8
11:53 am MST SE 12.7 G 19.6 10.00 Fair -- 77.0 28.9 17% NA NA 29.97 1013.1
10:53 am MST SE 13.8 10.00 Fair -- 75.0 28.9 18% NA NA 29.98 1013.5
9:53 am MST E 11.5 G 18.4 10.00 Fair -- 72.0 28.9 20% NA NA 29.99 1013.9
8:53 am MST E 8.1 10.00 Fair -- 70.0 30.0 23% NA NA 30.00 1014.1
7:53 am MST NE 6.9 10.00 Fair -- 66.0 28.9 25% NA NA 29.98 1013.5
6:53 am MST E 4.6 10.00 Fair -- 62.0 27.0 26% 62 NA 29.96 1013.0
5:53 am MST E 8.1 10.00 Fair -- 66.0 27.0 23% NA NA 29.96 1012.7
4:53 am MST E 8.1 10.00 Fair -- 66.0 25.0 21% NA NA 29.95 1012.2
3:53 am MST E 6.9 10.00 Fair -- 60.0 24.1 25% 59 NA 29.94 1012.2
2:53 am MST E 9.2 10.00 Fair -- 63.0 24.1 23% 62 NA 29.96 1012.6
1:53 am MST E 6.9 10.00 Fair -- 62.0 24.1 23% 62 NA 29.96 1013.0
12:53 am MST E 8.1 10.00 Fair -- 64.0 24.1 22% NA NA 29.98 1013.6
11:53 pm MST E 8.1 10.00 Fair -- 64.0 27.0 25% NA NA 29.99 1013.8
10:53 pm MST NE 10.4 10.00 Fair -- 65.0 30.0 27% NA NA 29.99 1014.0

Regional Weather Observation

Glendale, Glendale Municipal Airport, AZ (KGEU)

Clear
84.0 F

Luke Air Force Base / Phoenix, AZ (KLUF)

Fair
65.0 F

Phoenix, Phoenix Sky Harbor International Airport, AZ (KPHX)

Fair
71.0 F

Goodyear Municipal, AZ (KGYR)

A Few Clouds
70.0 F

Buckeye Municipal Airport, AZ (KBXK)

Fair
48.0 F

Scottsdale Airport, AZ (KSDL)

Fair
69.0 F
Advertise Here

Advertise Here